Location: Campillo
(40.8621°N, 4.2488°W)
Time: 13:01:06
(UTC+00:00)

Lacrosse 5 - Pass Details

Date: 11 May 2021
Orbit: 715 x 724 km, 57.0° (Epoch: 09 June)

Event Time Altitude Azimuth Distance (km) Brightness Sun altitude
Exits shadow 23:54:45 10° 73° (ENE) 2,198 4.5 -30.8°
Drops below altitude 10° 23:54:45 10° 73° (ENE) 2,199 4.5 -30.8°
Sets 23:57:38 0° 58° (ENE) 3,125 5.5 -30.9°
